EHI
0 0 0 0 0 0 0 0 0 0 0 0 0 0 0 0 0 0 0 0 0 0 0 0 0 0 0 0 0 0 0 0 0 0 0 0 0 0 0 0 0 0 0
0 0 0 0 0 0 0 0 0 0 0 0 0 0 0 0 0 0 0 0 0 0 0 0 0 0 0 0 0 0 0 0 0 0 0 0 0 0 0 0 0 0 0
0 0 0 0 0 0 0 0 0 0 0 0 0 0 0 0 0 0 0 0 0 0 0 0 0 0 0 0 0 0 0 0 0 0 0 0 0 0 0 0 0 0 0
0 0 0 0 0 0 0 0 0 0 0 0 0 0 0 0 0 0 0 0 0 0 0 0 0 0 0 0 0 0 0 0 0 0 0 0 0 0 0 0 0 0 0
0 0 0 0 0 0 0 0 0 0 0 0 0 0 0 0 0 0 0 0 0 0 0 0 0 0 0 0 0 0 0 0 0 0 0 0 0 0 0 0 0 0 0
0 0 0 0 0 0 0 0 0 0 0 0 0 0 0 0 0 0 0 0 0 0 0 0 0 0 0 0 0 0 0 0 0 0 0 0 0 0 0 0 0 0 0
0 0 0 0 0 0 0 0 0 0 0 0 0 0 0 0 0 0 0 0 0 0 0 0 0 0 0 0 0 0 0 0 0 0 0 0 0 0 0 0 0 0 0
0 0 0 0 0 0 0 0 0 0 0 0 0 0 0 0 0 0 0 0 0 0 0 0 0 0 0 0 0 0 0 0 0 0 0 0 0 0 0 0 0 0 0
0 0 0 0 0 0 0 0 0 0 0 0 0 0 0 0 0 0 0 0 0 0 0 0 0 0 0 0 0 0 0 0 0 0 0 0 0 0 0 0 0 0 0
0 0 0 0 0 0 0 0 0 0 0 0 0 0 0 0 0 0 0 0 0 0 0 0 0 0 0 0 0 0 0 0 0 0 0 0 0 0 0 0 0 0 0
0 0 0 0 0 0 0 0 0 0 0 0 0 0 0 0 0 0 0 0 0 0 0 0 0 0 0 0 0 0 0 0 0 0 0 0 0 0 0 0 0 0 0
0 0 0 0 0 0 0 0 0 0 0 0 0 0 0 0 0 0 0 0 0 0 0 0 0 0 0 0 0 0 0 0 0 0 0 0 0 0 0 0 0 0 0
0 0 0 0 0 0 0 0 0 0 0 0 0 0 0 0 0 0 0 0 0 0 0 0 0 0 0 0 0 0 0 0 0 0 0 0 0 0 0 0 0 0 0
0 0 0 0 0 0 0 0 0 0 0 0 0 0 0 0 0 0 0 0 0 0 0 0 0 0 0 0 0 0 0 0 0 0 0 0 0 0 0 0 0 0 0
0 0 0 0 0 0 0 0 0 0 0 0 0 0 0 0 0 0 0 0 0 0 0 0 0 0 0 0 0 0 0 0 0 0 0 0 0 0 0 0 0 0 0
0 0 0 0 0 0 0 0 0 0 0 0 0 0 0 0 0 0 0 0 0 0 0 0 0 0 0 0 0 0 0 0 0 0 0 0 0 0 0 0 0 0 0
0 0 0 0 0 0 0 0 0 0 0 0 0 0 0 0 0 0 0 0 0 0 0 0 0 0 0 0 0 0 0 0 0 0 0 0 0 0 0 0 0 0 0
0 0 0 0 0 0 0 0 0 0 0 0 0 0 0 0 0 0 0 0 0 0 0 0 0 0 0 0 0 0 0 0 0 0 0 0 0 0 0 0 0 0 0
0 0 0 0 0 0 0 0 0 0 0 0 0 0 0 0 0 0 0 0 0 0 0 0 0 0 0 0 0 0 0 0 0 0 0 0 0 0 0 0 0 0 0
0 0 0 0 0 0 0 0 0 0 0 0 0 0 0 0 0 0 0 0 0 0 0 0 0 0 0 0 0 0 0 0 0 0 0 0 0 0 0 0 0 0 0
0 0 0 0 0 0 0 0 0 0 0 0 0 0 0 0 0 0 0 0 0 0 0 0 0 0 0 0 0 0 0 0 0 0 0 0 0 0 0 0 0 0 0
0 0 0 0 0 0 0 0 0 0 0 0 0 0 0 0 0 0 0 0 0 0 0 0 0 0 0 0 0 0 0 0 0 0 0 0 0 0 0 0 0 0 0
0 0 0 0 0 0 0 0 0 0 0 0 0 0 0 0 0 0 0 0 0 0 0 0 0 0 0 0 0 0 0 0 0 0 0 0 0 0 0 0 0 0 0
0 0 0 0 0 0 0 0 0 0 0 0 0 0 0 0 0 0 0 0 0 0 0 0 0 0 0 0 0 0 0 0 0 0 0 0 0 0 0 0 0 0 0
0 0 0 0 0 0 0 0 0 0 0 0 0 0 0 0 0 0 0 0 0 0 0 0 0 0 0 0 0 0 0 0 0 0 0 0 0 0 0 0 0 0 0
0 0 0 0 0 0 0 0 0 0 0 0 0 0 0 0 0 0 0 0 0 0 0 0 0 0 0 0 0 0 0 0 0 0 0 0 0 0 0 0 0 0 0
Wind_Speed
8 7 7 7 6 5 5 6 6 5 5 5 4 4 4 4 3 3 3 4 4 4 4 5 6 6 5 5 5 5 5 5 6 4 2 1 1 2 3 4 4 5 6
9 8 8 8 7 7 8 8 7 7 6 6 6 5 5 5 4 4 5 4 4 5 5 5 6 5 6 5 5 6 6 6 6 6 3 2 2 4 5 5 4 5 6
9 9 9 9 9 10 10 9 8 8 7 7 6 7 7 6 6 6 6 5 5 5 5 5 5 5 6 5 6 6 6 6 6 5 4 3 2 4 5 5 6 5 6
9 9 10 11 11 11 11 9 9 9 8 8 8 8 8 7 7 7 6 6 6 6 5 5 6 6 7 7 6 7 6 6 6 6 5 4 3 4 5 5 5 4 5
9 9 11 12 11 10 10 10 10 9 10 9 8 8 8 7 7 8 7 7 6 6 6 6 6 8 9 8 7 7 7 7 6 6 6 5 5 6 6 5 6 6 5
9 11 11 10 10 10 11 11 10 9 9 8 9 9 9 8 10 13 9 7 6 7 7 6 6 8 9 10 12 12 11 9 9 7 7 7 8 7 6 8 8 7 4
10 11 11 10 10 11 11 9 9 10 9 9 9 9 10 11 14 13 13 8 8 7 7 7 6 6 7 6 8 11 12 14 13 9 9 9 9 10 11 11 9 6 5
10 11 10 10 11 10 10 10 10 8 8 8 9 9 9 11 14 14 14 9 7 8 8 8 8 7 7 7 6 7 8 10 12 11 10 9 9 10 12 11 11 9 8
11 11 11 10 10 10 10 10 9 7 8 8 7 9 9 10 13 13 12 6 6 8 8 8 8 8 8 9 7 7 8 7 8 10 10 9 11 14 13 11 11 11 8
12 12 11 10 10 11 10 9 8 7 8 8 8 8 9 10 12 13 11 5 6 6 6 7 9 9 8 8 8 8 9 7 6 6 7 9 11 15 18 15 14 13 10
12 12 12 11 11 11 10 9 8 8 8 8 8 8 8 10 11 12 11 6 7 6 6 5 5 8 9 9 9 8 9 6 6 7 7 7 9 10 11 9 9 12 11
13 13 12 11 11 10 8 8 7 7 8 8 7 7 6 7 9 10 12 11 10 7 6 5 5 7 8 8 7 8 9 7 5 6 7 7 9 9 9 9 8 6 5
13 12 11 11 10 9 8 8 7 6 7 6 6 6 6 5 6 11 11 11 12 8 6 7 7 6 5 5 7 8 8 7 6 7 8 7 7 9 9 9 9 9 9
13 11 10 9 9 7 6 6 6 6 6 6 6 6 5 4 5 4 4 5 7 8 6 5 6 6 5 4 4 5 6 6 7 7 7 7 7 9 9 10 10 9 8
12 10 10 8 8 7 6 5 6 6 6 6 6 5 5 5 6 7 5 5 5 5 5 3 3 3 3 4 3 4 4 5 6 6 7 9 9 9 9 9 9 8 7
10 9 7 6 6 5 5 5 7 8 9 11 9 6 5 7 6 7 8 8 8 9 6 4 4 4 5 4 4 4 4 5 6 7 8 9 10 10 9 8 9 9 9
11 9 6 6 5 5 4 4 3 3 4 6 8 8 8 6 6 6 6 6 7 8 4 4 4 4 4 4 4 4 4 5 6 7 8 9 10 10 10 10 9 9 9
10 10 7 5 5 4 3 2 2 1 1 1 1 4 6 5 5 5 8 7 4 4 3 3 3 3 4 4 4 4 5 6 7 7 9 9 10 10 10 10 9 10 10
9 6 5 4 4 3 2 1 1 1 1 1 1 2 3 5 6 7 8 3 4 4 4 3 3 3 3 3 3 4 6 7 8 8 8 9 9 10 10 10 9 12 11
7 10 8 4 3 2 2 1 0 0 1 2 2 3 3 4 4 4 3 2 3 3 3 3 3 3 3 3 4 5 6 7 9 8 9 9 9 10 11 12 10 10 9
7 7 9 5 3 2 2 1 1 1 1 1 2 3 5 3 4 5 4 3 2 3 3 2 3 3 3 4 4 6 8 8 8 9 9 9 9 9 9 10 10 9 9
6 5 4 4 3 2 2 1 1 1 2 3 3 3 5 3 3 3 3 2 2 2 1 2 2 3 3 4 5 6 8 8 9 9 9 9 9 9 9 9 9 9 9
6 5 4 3 3 3 2 2 2 2 2 3 4 4 3 2 2 2 2 2 2 2 1 2 2 3 3 4 5 6 8 9 9 10 10 10 9 9 9 9 11 10 10
6 5 5 4 3 3 2 2 2 2 3 3 4 3 3 2 2 2 2 2 2 2 1 2 2 3 5 5 4 5 6 8 9 9 12 11 10 9 9 9 10 11 10
6 5 4 4 3 3 3 3 3 3 3 3 3 3 3 2 2 2 2 2 2 2 2 2 2 3 5 8 7 6 9 11 10 9 9 9 10 10 10 10 9 10 9
6 5 4 3 3 3 3 3 4 4 3 3 3 3 2 2 2 2 2 2 1 1 1 1 2 4 6 7 9 10 10 10 10 10 9 9 10 9 10 8 11 9 10
Wind_Direction
258 253 253 252 247 243 241 242 239 240 241 242 247 252 257 262 261 259 262 261 255 260 257 239 236 227 221 217 212 213 218 222 244 252 237 210 163 133 101 90 87 83 86
260 259 256 255 251 245 244 244 238 237 238 236 235 239 246 245 237 237 250 249 246 251 251 247 247 238 228 221 215 218 220 218 230 246 234 207 185 157 131 114 100 93 91
258 256 258 258 252 247 246 244 237 233 237 237 230 233 240 241 238 233 234 244 243 245 243 240 245 241 239 230 223 222 222 221 220 231 229 202 172 153 135 118 110 102 96
263 259 258 257 253 251 248 244 240 234 233 235 232 231 233 236 237 238 234 238 241 243 241 236 238 235 239 237 231 226 220 219 219 222 219 202 176 156 148 139 128 113 102
271 266 261 259 257 254 253 250 245 237 236 231 232 234 232 229 232 230 230 234 234 242 246 245 245 245 243 237 230 223 215 215 215 216 212 198 181 169 163 150 139 124 95
273 271 270 268 264 258 254 251 247 243 239 230 228 232 233 233 229 224 219 225 231 239 249 254 256 256 257 250 237 227 216 214 214 213 211 203 190 172 156 154 148 144 133
274 273 271 268 266 263 260 254 247 245 240 232 232 229 232 235 233 232 230 223 228 234 239 246 256 253 247 252 247 235 225 222 218 214 214 207 189 174 164 164 164 151 134
277 275 272 268 266 264 260 254 248 244 239 236 235 231 230 237 234 233 235 229 228 233 235 236 241 253 250 243 247 243 236 229 222 220 222 213 193 177 171 162 149 121 106
281 278 275 270 267 264 258 255 250 244 243 237 233 228 227 237 236 234 231 221 228 238 238 234 233 244 249 239 237 242 242 238 227 219 216 207 184 167 156 145 145 141 136
287 283 278 271 266 263 258 254 251 244 244 242 239 230 227 233 235 231 224 212 227 238 239 235 233 236 244 237 232 232 235 230 208 198 197 190 178 166 163 163 159 154 145
292 287 281 275 269 264 258 251 247 245 244 241 241 237 228 229 236 234 224 206 217 228 233 235 232 230 239 238 231 231 230 216 201 194 182 176 170 168 169 165 163 160 155
294 290 285 279 275 274 259 250 243 239 240 240 239 240 235 230 229 233 227 218 211 215 224 227 226 229 238 237 230 230 223 206 197 187 178 172 168 165 161 156 146 134 123
298 295 289 286 278 270 261 254 246 236 235 235 229 233 235 228 229 231 232 227 216 211 221 221 219 226 233 237 230 225 209 199 191 184 176 168 159 152 144 137 124 108 97
301 299 293 288 284 272 261 251 242 235 231 228 225 227 229 224 223 221 222 221 214 209 210 211 210 212 219 230 222 213 205 196 187 178 163 149 141 143 146 144 140 132 120
303 299 296 288 284 280 265 249 244 235 224 220 221 216 214 222 223 211 201 201 194 191 178 182 190 196 208 213 207 205 192 180 174 161 154 150 146 144 144 141 140 138 133
307 303 298 294 289 281 274 269 246 240 234 227 226 220 220 223 222 217 212 207 192 172 168 189 199 203 207 206 195 189 182 172 160 154 153 151 147 145 141 141 146 146 141
310 307 299 297 294 287 278 271 276 260 239 231 225 220 220 220 220 210 190 180 173 167 181 195 203 204 198 187 180 178 172 159 148 149 149 146 141 141 144 147 148 144 141
314 310 309 302 303 298 288 278 260 250 236 174 191 208 213 212 196 171 153 142 151 178 198 200 200 191 180 171 171 163 153 146 142 142 141 141 140 142 144 146 149 147 143
319 313 311 310 311 307 300 288 264 234 204 143 117 90 114 128 129 147 155 162 167 183 202 207 189 171 161 163 164 155 149 144 140 137 136 137 139 140 141 144 144 144 145
323 325 333 328 326 327 323 313 272 148 138 145 144 134 129 123 130 150 171 176 178 190 197 192 174 158 153 155 151 142 136 136 139 134 135 138 140 140 141 143 146 150 151
328 330 340 342 338 338 344 4 69 104 117 129 136 149 153 147 151 160 172 181 186 189 194 171 162 157 153 146 141 137 136 137 138 137 138 140 141 139 139 142 145 146 142
332 334 338 342 346 358 5 22 55 77 94 100 101 113 134 121 136 152 168 182 185 176 170 150 141 144 145 146 145 144 142 141 141 140 140 140 138 139 140 142 144 145 146
341 346 350 356 2 15 29 44 61 74 85 95 105 112 126 130 145 161 171 167 145 147 159 146 128 131 143 148 149 151 150 149 148 147 143 141 141 143 146 148 151 152 155
345 353 1 4 10 24 37 53 68 81 90 98 106 118 134 143 148 155 154 145 137 147 166 163 151 139 141 145 148 149 147 144 145 148 147 145 145 146 148 152 157 162 162
350 358 5 7 14 26 39 56 69 81 89 97 106 115 127 132 133 135 136 144 158 170 172 161 148 143 150 156 154 145 140 139 142 144 144 144 147 150 153 155 157 158 159
356 0 6 13 24 38 51 63 69 77 85 96 105 109 112 115 114 120 138 151 162 174 162 149 149 150 154 156 149 139 139 141 141 142 145 145 148 153 156 156 159 162 163